This demonstration page uses our WeatherBlox Daily Observations layout. Learn more.

Left ArrowRight Arrow

39.51506, -84.39828

Hourly Observations for January 26, 2019

Temp ( °F °C ) Dew Point ( °F °C ) Humidity (%) Winds ( mph kmh ) Pressure ( in mb ) Visibility ( mi km ) Precip ( " mm )
12:15 am 00:15 Cloudy 23 -5.2 9 -12.6 56 56 SW 7 11 30.23 1024 10 16 0.00 0.00
12:35 am 00:35 Cloudy 23 -5.2 10 -12.5 57 57 SW 6 9 30.24 1024 10 16 0.00 0.00
12:55 am 00:55 Cloudy 23 -5.2 10 -12.4 57 57 SSW 8 13 30.23 1024 10 16 0.00 0.00
1:15 am 01:15 Cloudy 22 -5.5 10 -12.1 60 60 SW 5 7 30.23 1024 10 16 0.00 0.00
1:35 am 01:35 Cloudy 22 -5.3 11 -11.9 60 60 SSW 9 15 30.23 1024 10 16 0.00 0.00
1:55 am 01:55 Cloudy 22 -5.3 11 -11.8 61 61 SW 9 15 30.23 1024 10 16 0.00 0.00
2:15 am 02:15 Cloudy 23 -5 12 -11.1 63 63 SSW 8 13 30.22 1023 10 16 0.00 0.00
2:35 am 02:35 Cloudy 23 -5 12 -11.2 62 62 SSW 7 11 30.21 1023 10 16 0.00 0.00
2:55 am 02:55 Cloudy 23 -5.2 13 -10.7 66 66 SSW 9 15 30.21 1023 10 16 0.00 0.00
3:15 am 03:15 Cloudy 22 -5.6 12 -10.9 67 67 SSW 7 11 30.22 1023 10 16 0.00 0.00
3:35 am 03:35 Cloudy 23 -5.1 13 -10.3 67 67 S 3 6 30.22 1023 10 16 0.00 0.00
3:55 am 03:55 Cloudy 23 -4.8 14 -10.2 66 66 SSW 6 9 30.22 1023 10 16 0.00 0.00
4:15 am 04:15 Cloudy with Light Snow 24 -4.7 14 -9.9 67 67 SSW 7 11 30.22 1023 10 16 0.00 0.00
4:35 am 04:35 Cloudy 24 -4.6 13 -10.5 64 64 S 7 11 30.21 1023 10 16 0.00 0.00
4:55 am 04:55 Cloudy 24 -4.5 13 -10.3 64 64 S 8 13 30.21 1023 10 16 0.00 0.00
5:15 am 05:15 Cloudy 24 -4.4 14 -10 65 65 S 9 15 30.20 1023 10 16 0.00 0.00
5:35 am 05:35 Cloudy 24 -4.4 14 -10.1 65 65 SSW 9 15 30.21 1023 10 16 0.00 0.00
5:55 am 05:55 Cloudy 24 -4.3 14 -9.9 65 65 SSW 8 13 30.21 1023 10 16 0.00 0.00
6:15 am 06:15 Cloudy 24 -4.2 14 -9.8 65 65 SSW 12 19 30.21 1023 10 16 0.00 0.00
6:35 am 06:35 Cloudy 25 -4.1 15 -9.5 66 66 SW 8 13 30.21 1023 10 16 0.00 0.00
6:55 am 06:55 Cloudy 25 -4.1 15 -9.3 67 67 SW 9 15 30.22 1023 10 16 0.00 0.00
7:15 am 07:15 Cloudy 25 -4 16 -9 69 69 SSW 9 15 30.22 1023 10 16 0.00 0.00
7:35 am 07:35 Cloudy 25 -3.9 16 -8.8 69 69 SSW 10 17 30.22 1023 10 16 0.00 0.00
7:55 am 07:55 Cloudy 25 -3.8 17 -8.6 70 70 SW 10 17 30.22 1023 10 16 0.00 0.00
8:15 am 08:15 Cloudy 25 -3.8 17 -8.5 70 70 SW 8 13 30.23 1024 10 16 0.00 0.00
8:35 am 08:35 Cloudy with Light Snow 25 -4 18 -8 74 74 SW 9 15 30.23 1024 10 16 0.00 0.00
8:55 am 08:55 Cloudy with Light Snow 25 -4 18 -8 74 74 SSW 8 13 30.23 1024 10 16 0.00 0.00
9:15 am 09:15 Cloudy with Light Snow 26 -3.5 17 -8.1 71 71 SSW 8 13 30.23 1024 10 16 0.00 0.00
9:35 am 09:35 Cloudy with Light Snow 26 -3.1 18 -7.8 70 70 SW 9 15 30.22 1023 10 16 0.00 0.00
9:55 am 09:55 Cloudy 27 -2.8 18 -7.6 70 70 SW 8 13 30.22 1023 10 16 0.00 0.00
10:15 am 10:15 Cloudy 28 -2.5 18 -7.9 67 67 SW 9 15 30.22 1023 10 16 0.00 0.00
10:35 am 10:35 Cloudy 28 -2.3 18 -7.8 66 66 WSW 7 11 30.22 1023 10 16 0.00 0.00
10:55 am 10:55 Cloudy 29 -1.8 18 -7.8 64 64 SW 12 19 30.22 1023 10 16 0.00 0.00
11:15 am 11:15 Cloudy 29 -1.7 18 -7.7 64 64 SW 10 17 30.22 1023 10 16 0.00 0.00
11:35 am 11:35 Cloudy 30 -1 18 -7.6 61 61 SW 14 22 30.22 1023 10 16 0.00 0.00
11:55 am 11:55 Cloudy 30 -1.1 18 -7.8 61 61 WSW 13 20 30.21 1023 10 16 0.00 0.00
12:15 pm 12:15 Cloudy 30 -1.3 19 -7.2 65 65 SW 15 24 30.21 1023 10 16 0.00 0.00
12:35 pm 12:35 Mostly Cloudy 31 -0.6 20 -6.9 63 63 SW 13 20 30.20 1023 10 16 0.00 0.00
12:55 pm 12:55 Cloudy 31 -0.7 19 -7 63 63 SW 13 20 30.19 1022 10 16 0.00 0.00
1:15 pm 13:15 Cloudy 31 -0.8 19 -7.2 62 62 SW 13 20 30.19 1022 10 16 0.00 0.00
1:35 pm 13:35 Cloudy 31 -0.7 19 -7.1 62 62 W 13 20 30.18 1022 10 16 0.00 0.00
1:55 pm 13:55 Mostly Cloudy with Light Snow 32 0 19 -7.3 58 58 WSW 15 24 30.17 1022 10 16 0.00 0.00
2:15 pm 14:15 Cloudy 33 0.7 20 -6.9 57 57 SW 12 19 30.15 1021 10 16 0.00 0.00
2:35 pm 14:35 Mostly Cloudy 33 0.3 19 -7.3 57 57 WSW 14 22 30.14 1021 10 16 0.00 0.00
2:55 pm 14:55 Cloudy 32 0.1 19 -7.2 58 58 SW 15 24 30.14 1021 10 16 0.00 0.00
3:15 pm 15:15 Mostly Cloudy 33 0.7 20 -6.9 57 57 SW 12 19 30.13 1020 10 16 0.00 0.00
3:35 pm 15:35 Mostly Cloudy 34 1 19 -7 56 56 SSW 13 20 30.13 1020 10 16 0.00 0.00
3:55 pm 15:55 Cloudy 33 0.4 19 -7.2 57 57 SSW 12 19 30.11 1020 10 16 0.00 0.00
4:15 pm 16:15 Cloudy 33 0.5 19 -7.1 57 57 SSW 14 22 30.11 1020 10 16 0.00 0.00
4:35 pm 16:35 Cloudy 33 0.5 19 -7 58 58 SSW 16 26 30.10 1019 10 16 0.00 0.00
4:55 pm 16:55 Cloudy 33 0.4 20 -6.9 58 58 SSW 10 17 30.10 1019 10 16 0.00 0.00
5:15 pm 17:15 Cloudy 33 0.4 19 -7 58 58 SSW 12 19 30.09 1019 10 16 0.00 0.00
5:35 pm 17:35 Cloudy 32 0.2 20 -6.8 60 60 SSW 12 19 30.08 1019 10 16 0.00 0.00
5:55 pm 17:55 Cloudy 32 0.2 20 -6.5 61 61 SSW 12 19 30.08 1019 10 16 0.00 0.00
6:15 pm 18:15 Mostly Cloudy 32 0 20 -6.5 62 62 S 10 17 30.07 1018 10 16 0.00 0.00
6:35 pm 18:35 Cloudy 32 0.1 21 -6.3 62 62 S 8 13 30.06 1018 10 16 0.00 0.00
7:15 pm 19:15 Cloudy 32 0.1 23 -5 69 69 S 16 26 30.06 1018 10 16 0.00 0.00
7:35 pm 19:35 Cloudy with Light Snow 31 -0.6 26 -3.6 80 80 S 14 22 30.07 1018 5 8 0.00 0.00
7:55 pm 19:55 Cloudy with Light Snow 31 -0.8 27 -2.9 86 86 S 9 15 30.07 1018 4 6 0.00 0.00
8:15 pm 20:15 Cloudy with Light Snow 30 -1 27 -2.7 88 88 S 7 11 30.06 1018 5 8 0.00 0.00
8:35 pm 20:35 Cloudy with Light Snow 31 -0.8 27 -2.8 86 86 S 12 19 30.04 1017 10 16 0.00 0.00
8:55 pm 20:55 Cloudy with Light Snow 31 -0.5 27 -2.8 85 85 S 9 15 30.03 1017 10 16 0.00 0.00
9:15 pm 21:15 Cloudy with Light Snow 31 -0.5 28 -2.5 87 87 S 10 17 30.02 1016 7 11 0.00 0.00
9:35 pm 21:35 Cloudy with Light Snow 31 -0.3 28 -2.5 85 85 S 15 24 30.01 1016 10 16 0.00 0.00
9:55 pm 21:55 Cloudy with Light Snow 32 -0.1 28 -2.5 84 84 S 10 17 30.01 1016 10 16 0.00 0.00
10:15 pm 22:15 Cloudy with Light Snow 32 0.1 28 -2.5 83 83 SSW 9 15 29.99 1016 10 16 0.00 0.00
10:35 pm 22:35 Cloudy 32 0.2 28 -2.5 82 82 S 12 19 29.97 1015 10 16 0.00 0.00
10:55 pm 22:55 Cloudy with Light Snow 33 0.7 27 -2.6 79 79 SSW 10 17 29.97 1015 10 16 0.00 0.00
11:15 pm 23:15 Cloudy with Light Snow 33 0.8 28 -2.2 81 81 SSW 9 15 29.97 1015 7 11 0.00 0.00
11:35 pm 23:35 Cloudy with Light Snow 33 0.8 30 -1.2 87 87 SW 14 22 29.96 1015 3 5 0.00 0.00
11:55 pm 23:55 Cloudy with Light Snow 33 0.7 31 -0.5 92 92 SW 14 22 29.96 1015 3 5 0.00 0.00

Powered by AerisWeather